When you browse on this site, cookies collect data to enhance your experience and personalize the content and advertising you see.
Visit our Privacy Policy to learn more. By continuing to use the site, you agree to this use of cookies and data.
  • In Hungary
  • List of Countries
  • For 7 days
  • Water Temperature
  • Satellite Maps
  • Weather Map
  • News
  • Weather Widgets
  • user-avatar
    Login

    Hourly Weather Agropoli

    Today, 10 December, Monday

    Time Temperature Precipitation Wind Pressure Humidity
    00:00 +11°C° 0.2 mm 6 mps 754 mmHg 83%
    01:00 +10°C° 0 mm 6 mps 754 mmHg 84%
    02:00 +10°C° 0.1 mm 6 mps 754 mmHg 83%
    03:00 +9°C° 0.1 mm 6 mps 754 mmHg 83%
    04:00 +9°C° 0.1 mm 5 mps 754 mmHg 83%
    05:00 +9°C° 0 mm 5 mps 755 mmHg 81%
    06:00 +10°C° 0 mm 4 mps 755 mmHg 78%
    07:00 +8°C° 0 mm 4 mps 755 mmHg 74%
    08:00 +11°C° 0 mm 4 mps 756 mmHg 68%
    09:00 +13°C° 0 mm 3 mps 756 mmHg 62%
    10:00 +14°C° 0 mm 3 mps 756 mmHg 56%
    11:00 +15°C° 0 mm 4 mps 756 mmHg 53%
    12:00 +15°C° 0 mm 4 mps 756 mmHg 49%
    13:00 +17°C° 0 mm 4 mps 756 mmHg 46%
    14:00 +15°C° 0.1 mm 4 mps 756 mmHg 50%
    15:00 +14°C° 0.1 mm 4 mps 755 mmHg 55%
    16:00 +13°C° 0.1 mm 4 mps 755 mmHg 59%
    17:00 +12°C° 0.1 mm 4 mps 756 mmHg 63%
    18:00 +11°C° 0.1 mm 4 mps 756 mmHg 67%
    19:00 +10°C° 0.1 mm 4 mps 756 mmHg 71%
    20:00 +10°C° 0 mm 4 mps 757 mmHg 73%
    21:00 +10°C° 0 mm 4 mps 757 mmHg 75%
    22:00 +8°C° 0 mm 4 mps 757 mmHg 77%
    23:00 +8°C° 0.1 mm 4 mps 758 mmHg 77%

    Tomorrow, 11 December, Tuesday

    Time Temperature Precipitation Wind Pressure Humidity
    00:00 +8°C° 0.1 mm 4 mps 758 mmHg 77%
    01:00 +8°C° 0.1 mm 4 mps 758 mmHg 77%
    02:00 +8°C° 0.1 mm 4 mps 758 mmHg 77%
    03:00 +8°C° 0.1 mm 4 mps 758 mmHg 76%
    04:00 +9°C° 0.1 mm 3 mps 758 mmHg 76%
    05:00 +8°C° 0 mm 3 mps 759 mmHg 77%
    06:00 +8°C° 0 mm 3 mps 759 mmHg 79%
    07:00 +7°C° 0 mm 3 mps 759 mmHg 80%
    08:00 +8°C° 0 mm 3 mps 759 mmHg 71%
    09:00 +9°C° 0 mm 2 mps 760 mmHg 63%
    10:00 +12°C° 0 mm 2 mps 760 mmHg 54%
    11:00 +12°C° 0 mm 2 mps 760 mmHg 48%
    12:00 +13°C° 0 mm 1 mps 760 mmHg 42%
    13:00 +14°C° 0 mm 1 mps 760 mmHg 37%
    14:00 +13°C° 0 mm 1 mps 760 mmHg 40%
    15:00 +12°C° 0 mm 1 mps 760 mmHg 43%
    16:00 +12°C° 0 mm 2 mps 760 mmHg 46%
    17:00 +10°C° 0 mm 2 mps 760 mmHg 49%
    18:00 +9°C° 0 mm 2 mps 760 mmHg 51%
    19:00 +8°C° 0 mm 2 mps 761 mmHg 54%
    20:00 +8°C° 0 mm 2 mps 761 mmHg 56%
    21:00 +8°C° 0 mm 2 mps 761 mmHg 59%
    22:00 +7°C° 0 mm 2 mps 761 mmHg 61%
    23:00 +7°C° 0 mm 2 mps 761 mmHg 62%

    Day after tomorrow, 12 December, Wednesday

    Time Temperature Precipitation Wind Pressure Humidity
    00:00 +7°C° 0 mm 3 mps 761 mmHg 63%
    01:00 +5°C° 0 mm 3 mps 761 mmHg 65%
    02:00 +5°C° 0 mm 3 mps 761 mmHg 64%
    03:00 +5°C° 0 mm 3 mps 761 mmHg 64%
    04:00 +5°C° 0 mm 3 mps 761 mmHg 63%
    05:00 +5°C° 0 mm 3 mps 761 mmHg 61%
    06:00 +5°C° 0 mm 3 mps 761 mmHg 59%
    07:00 +5°C° 0 mm 3 mps 761 mmHg 58%
    08:00 +7°C° 0 mm 3 mps 761 mmHg 51%
    09:00 +8°C° 0 mm 4 mps 761 mmHg 45%
    10:00 +10°C° 0 mm 4 mps 761 mmHg 39%
    11:00 +11°C° 0 mm 4 mps 761 mmHg 36%
    12:00 +12°C° 0 mm 4 mps 760 mmHg 34%
    13:00 +12°C° 0 mm 4 mps 760 mmHg 31%
    14:00 +12°C° 0.1 mm 5 mps 759 mmHg 36%
    15:00 +10°C° 0.1 mm 5 mps 759 mmHg 41%
    16:00 +9°C° 0.1 mm 5 mps 759 mmHg 46%
    17:00 +9°C° 0.2 mm 5 mps 759 mmHg 51%
    18:00 +8°C° 0.2 mm 5 mps 758 mmHg 56%
    19:00 +8°C° 0.2 mm 5 mps 758 mmHg 61%
    20:00 +8°C° 0.1 mm 5 mps 758 mmHg 66%
    21:00 +7°C° 0.1 mm 4 mps 758 mmHg 71%
    22:00 +7°C° 0.1 mm 4 mps 758 mmHg 76%
    23:00 +7°C° 0.1 mm 4 mps 757 mmHg 80%

    13 December, Thursday

    Time Temperature Precipitation Wind Pressure Humidity
    00:00 +8°C° 0.1 mm 3 mps 757 mmHg 84%
    01:00 +8°C° 0.1 mm 3 mps 756 mmHg 88%
    02:00 +9°C° 0.1 mm 2 mps 756 mmHg 89%
    03:00 +9°C° 0.1 mm 2 mps 755 mmHg 91%
    04:00 +9°C° 0.1 mm 2 mps 755 mmHg 92%
    05:00 +9°C° 0.1 mm 2 mps 755 mmHg 92%
    06:00 +9°C° 0.1 mm 2 mps 755 mmHg 92%
    07:00 +9°C° 0.1 mm 2 mps 755 mmHg 92%
    08:00 +10°C° 0.1 mm 2 mps 755 mmHg 89%
    09:00 +12°C° 0.1 mm 2 mps 755 mmHg 85%
    10:00 +13°C° 0.1 mm 2 mps 755 mmHg 82%
    11:00 +13°C° 0.3 mm 3 mps 755 mmHg 80%
    12:00 +13°C° 0.3 mm 4 mps 755 mmHg 79%
    13:00 +13°C° 0.3 mm 4 mps 754 mmHg 77%
    14:00 +13°C° 0.1 mm 4 mps 755 mmHg 79%
    15:00 +13°C° 0.1 mm 4 mps 755 mmHg 80%
    16:00 +12°C° 0.1 mm 3 mps 755 mmHg 82%
    17:00 +12°C° 0.1 mm 3 mps 755 mmHg 83%
    18:00 +11°C° 0.1 mm 3 mps 755 mmHg 85%
    19:00 +12°C° 0.1 mm 2 mps 756 mmHg 86%
    20:00 +12°C° 0.1 mm 2 mps 756 mmHg 86%
    21:00 +12°C° 0.1 mm 2 mps 756 mmHg 87%
    22:00 +10°C° 0.1 mm 2 mps 756 mmHg 87%
    23:00 +10°C° 0 mm 2 mps 756 mmHg 88%

    14 December, Friday

    Time Temperature Precipitation Wind Pressure Humidity
    00:00 +10°C° 0 mm 3 mps 756 mmHg 88%
    01:00 +10°C° 0 mm 3 mps 756 mmHg 88%
    02:00 +10°C° 0 mm 3 mps 756 mmHg 88%
    03:00 +10°C° 0 mm 3 mps 756 mmHg 87%
    04:00 +8°C° 0 mm 4 mps 756 mmHg 87%
    05:00 +8°C° 0 mm 4 mps 756 mmHg 86%
    06:00 +8°C° 0 mm 4 mps 756 mmHg 85%
    07:00 +8°C° 0 mm 4 mps 756 mmHg 83%
    08:00 +10°C° 0 mm 4 mps 757 mmHg 79%
    09:00 +12°C° 0 mm 4 mps 757 mmHg 74%
    10:00 +13°C° 0 mm 4 mps 757 mmHg 70%
    11:00 +14°C° 0 mm 4 mps 757 mmHg 66%
    12:00 +16°C° 0 mm 3 mps 757 mmHg 62%
    13:00 +17°C° 0 mm 3 mps 757 mmHg 58%
    14:00 +16°C° 0 mm 3 mps 757 mmHg 63%
    15:00 +16°C° 0 mm 3 mps 757 mmHg 67%
    16:00 +14°C° 0 mm 3 mps 758 mmHg 71%
    17:00 +13°C° 0 mm 4 mps 758 mmHg 75%
    18:00 +12°C° 0 mm 4 mps 758 mmHg 79%
    19:00 +11°C° 0 mm 4 mps 759 mmHg 83%
    20:00 +11°C° 0 mm 4 mps 759 mmHg 84%
    21:00 +11°C° 0 mm 4 mps 760 mmHg 85%
    22:00 +11°C° 0 mm 4 mps 760 mmHg 86%
    23:00 +11°C° 0 mm 4 mps 760 mmHg 86%

    15 December, Saturday

    Time Temperature Precipitation Wind Pressure Humidity
    00:00 +11°C° 0 mm 4 mps 760 mmHg 87%
    01:00 +11°C° 0 mm 4 mps 760 mmHg 87%
    02:00 +11°C° 0 mm 4 mps 760 mmHg 87%
    03:00 +10°C° 0 mm 5 mps 761 mmHg 87%
    04:00 +10°C° 0 mm 5 mps 761 mmHg 87%
    05:00 +10°C° 0 mm 5 mps 761 mmHg 88%
    06:00 +11°C° 0 mm 4 mps 761 mmHg 88%
    07:00 +11°C° 0 mm 4 mps 761 mmHg 88%
    08:00 +12°C° 0 mm 4 mps 762 mmHg 84%
    09:00 +13°C° 0 mm 4 mps 762 mmHg 80%
    10:00 +14°C° 0 mm 4 mps 763 mmHg 76%
    11:00 +16°C° 0 mm 3 mps 763 mmHg 74%
    12:00 +17°C° 0 mm 3 mps 763 mmHg 71%
    13:00 +17°C° 0 mm 2 mps 763 mmHg 68%
    14:00 +17°C° 0 mm 2 mps 763 mmHg 71%
    15:00 +16°C° 0 mm 2 mps 763 mmHg 74%
    16:00 +16°C° 0 mm 2 mps 763 mmHg 77%
    17:00 +14°C° 0 mm 3 mps 763 mmHg 80%
    18:00 +13°C° 0 mm 3 mps 764 mmHg 82%
    19:00 +13°C° 0 mm 3 mps 764 mmHg 85%
    20:00 +13°C° 0 mm 3 mps 764 mmHg 85%
    21:00 +12°C° 0 mm 3 mps 765 mmHg 86%
    22:00 +12°C° 0 mm 3 mps 765 mmHg 87%
    23:00 +12°C° 0 mm 3 mps 765 mmHg 87%
    Show more